Find Starlink 30331

NORAD ID: 57740 Int'l Des: 2023-131 Owner: SPXS Country: US Constellation: starlink operational
LEOCIRCULAR

現在のビュー

3D地球を読み込み中...

About Starlink 30331

Starlink 30331 (NORAD 57740) is a starlink constellation satellite (v2 mini) launched Sep 1, 2023 by SPXS of US. It operates in LEO, CIRCULAR orbit with a mass of 730.00 kg.

Starlink 30331について

説明を読み込み中...

次回通過

Passes for default location (London). Set your location on the main map for personalized predictions.

高度履歴

Loading altitude history...

軌道要素

1 57740U 23131J 26177.55140317 -.00000107 00000-0 56476-5 0 9994
2 57740 43.0014 204.6088 0001352 272.1743 87.8954 15.27578656157424
Epoch: Jun 26, 2026 • Age: 25 hours

現在のステータス

高度 485.4 km
速度 7.62 km/s
衛星直下点 -14.80°S, 52.95°E
打ち上げ日 Sep 1, 2023
運用期間 2.8 years
タイプ internet

技術仕様

分類 Payload
質量 730.00 kg
乾燥質量 700.00 kg
総質量 730.00 kg
長さ 0.30 m
直径 4.10 m
スパン 29.00 m
形状 Box + pan
製造者 SPXS
バスタイプ Starlink V2M
フェーズステータス In Orbit
所有者/国 SPXS/US

Most Searched